Theta_e
323 329 329 328 334 332 325 328 327 329 330 327 328 327 330 333 339 347 339 342 341 340 338 333 326 332 336 337 336 336 335 334 332 334 334 334 333 332 331 328 328 328 329 328 328 327 327 327 327
324 327 329 332 334 334 324 324 326 328 328 327 328 328 329 334 335 337 341 341 340 339 338 332 327 327 335 336 337 336 333 331 334 334 334 332 332 332 330 329 327 327 328 329 330 328 326 326 325
324 329 331 335 335 333 324 324 325 327 328 329 330 329 329 333 334 338 341 341 339 338 336 334 328 324 333 335 335 332 330 329 328 330 332 329 329 330 330 328 326 328 327 328 332 328 325 323 323
324 332 330 332 334 330 323 322 324 327 327 326 326 328 331 332 334 339 341 340 338 337 337 332 324 319 327 331 331 332 332 331 330 328 329 328 328 327 328 327 327 326 327 326 328 327 321 319 319
326 331 337 335 333 329 326 323 324 326 325 323 323 325 333 334 336 340 341 340 338 337 338 332 327 323 321 328 331 333 335 332 330 330 328 328 327 327 326 326 326 326 326 326 326 325 323 321 320
329 331 337 337 332 328 326 325 325 325 325 324 324 327 334 334 336 339 341 340 338 338 338 332 329 324 322 325 330 331 330 333 332 331 330 328 327 326 326 326 325 325 326 325 325 325 321 321 322
330 333 335 336 333 329 327 326 327 327 327 328 325 324 331 333 336 338 340 340 339 338 337 336 331 327 325 322 325 329 330 333 335 332 329 327 326 325 325 326 326 325 325 325 325 326 325 321 321
329 331 333 335 333 332 326 326 327 328 330 328 328 326 329 333 336 337 337 339 340 339 337 336 335 330 327 325 324 326 330 331 331 332 331 328 327 327 326 325 325 325 324 325 324 325 324 323 320
328 332 333 334 334 330 326 327 327 326 328 330 330 331 331 335 336 337 337 337 337 339 338 336 335 334 333 330 325 325 326 328 329 328 329 329 328 327 326 326 326 326 325 324 324 324 324 323 320
325 329 330 329 332 330 326 327 327 328 329 330 333 331 335 336 336 336 337 337 337 337 337 335 335 335 335 333 332 327 325 325 326 328 326 328 327 327 329 328 328 326 326 325 324 324 323 322 320
321 325 323 328 330 329 327 327 326 328 330 329 332 332 333 336 336 335 335 336 336 334 334 335 336 336 335 334 333 332 330 328 326 326 327 329 327 327 327 327 327 327 326 325 324 324 324 323 324
322 321 322 328 326 328 330 328 328 327 328 326 327 332 333 334 334 335 334 335 336 335 335 335 336 335 335 334 334 333 332 331 329 329 329 328 328 328 328 328 326 327 327 326 325 326 327 326 326
322 320 321 325 325 326 325 328 327 327 325 326 326 332 332 332 333 333 333 333 334 334 335 335 333 335 334 335 334 333 333 332 332 331 330 330 329 328 328 328 327 327 327 327 327 326 326 326 326
321 319 321 323 324 325 326 327 326 327 326 325 328 327 330 330 332 333 333 333 333 333 333 334 334 334 332 334 334 334 333 333 332 332 331 331 330 330 329 328 328 327 326 326 326 326 326 326 325
322 322 321 321 321 323 323 324 325 323 324 327 326 325 328 328 331 331 333 333 333 333 333 334 334 334 334 331 331 333 334 333 333 332 332 332 332 331 330 329 329 328 327 326 326 326 325 325 324
322 321 323 321 319 322 321 317 318 321 321 321 321 323 325 327 329 331 331 332 332 333 333 334 334 334 334 334 333 330 331 333 333 333 332 332 332 332 331 330 330 329 329 328 327 326 326 325 325
322 320 320 321 321 321 321 319 316 320 319 318 317 316 317 322 324 326 327 329 331 332 332 332 332 333 334 335 335 334 334 330 332 334 333 333 332 332 332 331 330 330 330 329 329 328 327 326 326
317 318 315 317 321 321 322 322 319 320 320 319 318 317 317 317 316 319 319 320 322 323 325 326 328 331 331 331 334 335 335 334 333 332 333 333 333 333 332 332 331 331 330 329 329 328 328 327 327
315 315 315 316 319 319 319 318 317 317 316 316 316 317 316 316 317 319 319 319 318 319 319 319 320 321 325 330 331 332 333 334 334 334 333 332 333 333 332 332 332 331 330 329 328 328 328 327 327
316 315 314 316 318 317 316 315 312 312 313 313 313 313 313 312 312 313 314 316 318 318 319 319 319 320 321 325 328 329 331 332 332 333 332 330 331 333 332 332 330 330 330 329 328 328 328 328 327
317 316 314 314 317 316 317 315 315 313 312 312 312 312 312 311 310 310 313 315 316 316 316 317 318 319 320 321 324 327 328 329 330 331 331 331 331 329 332 331 330 328 328 328 327 327 327 327 326
319 315 315 317 316 312 314 312 311 310 310 311 310 310 309 309 311 311 312 313 314 314 315 316 317 318 318 319 321 324 326 327 328 329 329 331 332 331 330 329 329 327 326 326 326 325 325 325 325
314 314 315 314 313 313 311 310 309 311 310 310 310 310 310 311 312 311 310 311 311 311 312 312 314 314 314 315 317 321 324 326 327 328 328 329 329 329 329 329 329 327 326 325 325 325 324 324 324
314 313 313 314 313 313 312 309 308 309 310 311 313 311 311 311 311 310 309 310 311 312 313 314 315 316 315 314 314 318 322 324 325 326 326 326 325 326 326 327 326 325 325 325 325 324 324 324 324
315 315 318 319 318 313 311 309 309 309 311 311 313 311 311 311 310 310 310 311 312 311 310 310 311 311 316 320 320 320 322 323 324 324 320 322 321 320 321 322 323 322 321 320 321 321 321 321 322
315 314 318 314 318 314 313 312 310 311 310 310 311 311 310 310 310 311 310 310 309 308 308 307 306 306 308 310 313 316 316 316 313 314 312 310 310 311 311 310 309 309 311 312 314 316 319 319 319
315 315 313 313 308 311 311 311 310 311 311 311 311 310 310 311 310 310 309 308 307 306 305 305 304 304 304 305 306 307 307 308 307 307 307 307 307 306 305 305 306 306 307 308 309 310 311 313 317
314 313 315 314 313 313 307 307 309 310 310 310 310 309 310 310 311 311 308 307 306 304 303 303 303 303 303 303 303 303 303 303 303 304 303 303 303 303 302 303 303 303 304 305 306 307 309 311 312
315 316 314 314 313 315 313 309 308 309 309 310 310 311 310 309 308 308 309 307 305 304 303 303 302 302 302 302 302 302 302 302 302 302 301 301 301 301 301 301 301 301 302 302 303 304 304 305 305
312 313 313 313 314 311 313 311 311 309 309 309 309 310 310 309 307 308 309 307 305 304 302 302 301 301 301 300 300 300 300 300 300 300 300 300 300 300 300 300 300 300 300 300 300 300 300 300 301
Wind_Speed
25 14 8 6 2 3 6 2 7 6 4 5 8 6 9 9 6 5 14 25 25 20 17 15 15 15 12 11 13 13 11 10 9 10 9 10 10 11 12 13 11 11 11 11 12 12 12 11 11
25 16 5 4 3 2 4 7 6 7 8 7 5 1 1 5 7 11 11 22 23 19 16 15 15 16 14 13 14 13 9 7 8 9 9 10 9 10 10 11 10 10 10 9 10 11 10 10 9
26 9 3 3 2 5 5 7 10 9 4 1 4 4 5 4 11 15 19 23 20 19 16 13 14 16 16 14 12 10 10 6 6 8 9 9 8 9 9 10 8 9 9 7 9 9 9 8 8
12 3 4 2 7 5 8 9 11 8 4 2 5 9 6 8 11 15 25 22 21 19 18 14 14 15 17 15 13 11 12 8 5 6 8 9 9 7 8 9 7 6 6 6 6 6 6 6 6
12 4 4 3 6 3 6 8 9 6 6 8 2 6 7 5 13 22 24 21 19 18 14 16 14 13 14 15 14 12 11 9 7 5 5 8 8 7 6 6 6 5 4 4 4 2 3 3 4
4 2 4 4 7 3 4 4 7 6 6 5 2 9 5 13 16 19 22 22 17 16 12 15 13 12 13 14 14 12 10 9 10 8 7 6 6 6 6 6 6 6 4 2 1 3 2 0 1
5 5 7 5 8 6 4 1 4 6 6 5 2 5 7 11 16 17 18 21 19 17 15 12 13 13 12 12 14 14 11 10 10 9 7 6 6 7 5 5 5 5 5 4 3 4 6 4 3
3 3 7 4 8 5 7 6 3 4 5 2 6 3 7 15 17 16 17 17 18 16 16 13 10 12 13 13 13 14 14 12 10 10 9 7 6 7 7 7 8 7 7 7 7 7 9 8 8
4 3 5 7 4 7 10 6 4 3 5 2 3 6 14 23 18 16 15 17 17 17 16 13 13 9 9 10 13 14 14 16 14 12 11 13 11 9 10 11 9 10 9 9 10 10 12 12 11
2 3 7 8 1 6 10 8 9 5 7 4 7 6 19 20 18 16 14 16 19 19 15 13 14 13 13 11 10 13 14 14 18 16 14 14 10 10 11 11 13 12 13 11 12 13 13 14 13
4 3 8 7 9 9 9 7 9 5 7 8 10 12 12 16 16 15 15 16 15 17 18 18 16 16 16 14 13 11 12 13 14 14 16 15 13 14 16 16 12 15 17 16 16 14 15 14 9
3 6 4 5 5 6 4 3 2 5 2 6 8 18 15 11 14 16 17 20 20 20 21 23 21 18 18 18 16 15 13 16 14 17 17 18 18 17 15 14 14 15 11 13 12 15 14 12 11
4 3 0 5 4 4 7 4 1 5 8 6 7 13 11 10 16 20 20 20 21 22 22 21 21 23 21 19 18 17 17 18 17 17 19 19 20 19 17 17 15 16 14 15 14 15 16 17 18
6 5 4 3 4 0 2 4 4 5 7 8 6 6 9 10 17 18 20 20 20 20 21 21 22 22 25 25 24 20 20 19 20 19 19 20 21 19 18 17 17 18 18 17 17 18 18 19 19
3 3 5 6 6 2 1 7 8 7 2 5 8 7 8 8 15 16 17 15 18 19 18 21 23 22 22 23 29 27 21 21 21 21 21 21 22 23 19 19 20 19 19 19 19 18 19 20 21
3 2 4 9 10 5 4 4 10 11 9 9 8 8 8 8 9 11 13 19 19 19 20 20 21 23 24 23 22 23 29 22 19 22 21 22 24 23 23 23 21 20 19 19 19 20 21 21 21
5 3 8 1 2 1 7 4 8 4 3 4 6 9 8 8 11 16 14 15 15 17 19 21 23 24 24 24 23 22 20 22 28 20 23 23 23 25 25 24 24 22 21 21 20 20 21 21 21
5 4 5 7 3 2 6 8 8 5 4 6 6 8 8 6 8 10 14 16 16 17 17 18 20 24 25 24 23 22 21 22 21 23 23 21 23 23 25 26 25 22 22 22 21 21 21 22 21
4 5 6 4 4 2 6 8 11 8 7 8 8 9 9 10 12 16 18 18 18 18 21 20 19 19 19 25 24 24 26 24 22 21 20 25 20 22 24 25 24 23 24 24 23 22 22 25 24
2 6 4 4 5 2 7 11 11 11 9 9 11 12 11 8 9 14 17 19 19 15 16 18 19 21 23 23 25 25 23 21 23 25 25 23 25 19 22 23 22 21 22 24 25 25 22 23 21
6 7 5 2 5 8 5 8 15 12 14 16 14 11 8 9 9 7 6 8 6 11 17 20 19 22 22 23 21 18 19 17 16 17 20 20 16 22 24 20 20 21 23 25 25 24 24 19 20
8 8 6 4 3 2 3 5 3 6 8 9 9 7 9 9 3 4 5 8 9 9 10 10 16 17 16 16 20 21 21 19 18 18 16 15 14 13 10 18 18 18 21 22 23 22 22 22 19
0 6 3 0 3 5 3 4 6 1 4 6 6 3 6 5 3 4 6 8 8 10 10 10 11 12 14 15 17 15 17 15 11 11 11 7 9 11 14 14 15 16 16 19 21 21 21 22 23
8 5 4 2 1 3 10 8 4 5 4 4 5 5 5 3 2 5 3 2 3 4 3 2 2 5 7 12 14 15 11 13 13 8 6 8 8 8 7 10 11 13 14 15 17 19 21 23 24
6 7 2 1 2 6 2 7 10 5 3 4 4 2 3 4 4 5 5 7 8 6 6 7 5 7 5 7 9 9 8 5 2 2 3 4 4 4 5 5 6 7 10 13 15 18 20 20 22
13 9 4 5 3 1 4 5 5 2 7 5 5 2 4 6 5 5 6 7 6 5 7 5 5 6 7 7 6 6 7 7 5 4 4 3 2 4 6 8 8 9 10 12 12 12 16 17 19
10 8 2 2 1 1 5 6 8 5 4 4 3 3 5 5 6 6 6 5 4 3 3 3 3 4 5 6 6 7 8 7 5 4 4 3 2 3 4 5 6 7 8 9 10 12 15 15 17
2 4 3 1 3 4 5 5 5 5 7 7 7 7 6 4 4 5 6 4 2 1 2 2 2 3 4 4 5 6 6 6 5 4 2 1 2 3 4 5 6 6 7 7 9 11 12 13 13
4 4 4 4 4 2 2 2 5 8 9 9 6 4 4 3 3 4 6 7 6 5 4 3 3 3 3 4 4 5 5 5 5 4 3 3 2 4 4 6 7 7 8 9 9 8 10 13 15
7 5 9 3 4 3 1 5 2 7 9 6 6 5 2 3 3 3 6 8 8 8 6 5 5 4 4 4 5 5 5 5 4 3 2 2 3 4 5 6 7 8 9 10 10 11 12 13 14
Wind_Direction
343 350 310 273 265 188 128 68 84 86 124 59 44 20 67 41 15 106 144 129 136 142 148 144 144 147 140 137 146 132 121 114 109 109 104 99 101 100 97 94 87 86 87 85 84 82 82 79 77
336 330 273 271 234 228 90 125 139 82 76 86 115 183 100 81 73 123 112 134 140 143 142 152 150 154 149 140 135 129 117 112 112 111 112 106 105 105 107 99 90 84 85 85 87 79 79 80 82
325 289 265 235 292 15 100 150 94 88 99 142 118 27 17 76 107 149 136 138 141 144 149 162 155 158 160 151 153 143 124 102 102 122 132 121 119 118 116 114 104 93 87 92 84 79 77 78 85
316 251 255 240 74 5 100 94 109 131 113 29 328 93 81 20 138 132 138 137 144 149 168 169 157 159 169 166 163 161 150 150 124 117 136 138 139 133 135 130 121 109 104 88 91 88 89 86 87
309 256 267 235 78 95 27 105 129 166 152 142 248 94 96 64 107 135 144 144 148 153 174 165 160 161 167 176 175 166 165 168 155 144 124 151 164 155 144 145 145 132 116 100 91 59 81 81 70
290 234 281 208 121 95 95 120 138 120 111 102 188 111 81 128 136 147 152 151 156 159 170 169 165 166 167 174 179 179 178 181 178 163 167 166 167 174 174 171 172 181 175 160 156 300 311 304 305
261 296 278 305 116 149 146 286 172 146 161 118 349 99 126 154 143 152 163 158 159 169 161 181 174 174 177 179 185 188 185 174 190 181 175 173 179 171 181 193 213 216 206 218 235 254 287 280 287
305 289 278 287 138 156 131 163 36 343 72 93 2 138 167 142 147 153 164 156 161 169 175 176 187 187 186 187 190 194 197 197 191 192 186 207 203 193 211 208 217 232 228 225 234 242 267 276 273
296 280 268 243 224 131 143 158 169 30 115 83 64 53 107 137 149 153 166 164 171 171 179 193 187 202 194 198 202 201 203 210 212 212 208 206 214 232 235 231 227 236 237 236 238 252 267 273 270
240 241 261 0 177 131 160 184 153 161 152 131 103 85 120 137 150 159 176 182 169 187 182 189 198 196 196 197 212 213 213 215 219 223 231 221 221 229 238 237 236 237 245 243 249 255 262 269 269
221 240 350 48 16 8 157 202 157 205 180 180 173 160 151 158 171 173 187 198 180 190 198 201 201 202 201 199 209 223 213 227 221 224 221 230 225 228 234 238 238 247 250 246 248 252 257 270 262
278 257 11 5 21 356 356 205 172 210 85 50 79 158 159 172 185 187 190 194 198 198 204 205 196 205 208 207 210 215 217 223 224 225 226 221 225 229 235 245 238 248 255 249 250 251 262 267 262
252 260 151 67 359 337 4 302 162 257 134 91 85 144 163 180 189 194 197 199 195 197 204 211 210 201 200 207 212 216 218 219 224 225 229 230 228 231 234 236 236 235 243 245 247 246 249 255 257
350 256 203 134 235 208 296 265 80 245 272 134 146 191 180 187 193 192 194 193 195 198 203 206 214 216 214 203 207 217 220 223 230 225 228 231 232 234 235 236 238 239 239 242 246 246 250 254 257
326 285 226 223 231 181 24 280 236 246 12 180 183 237 201 193 191 191 194 200 196 202 204 208 210 216 224 222 217 210 209 224 227 231 229 231 234 233 235 239 240 242 243 244 245 249 252 256 256
225 281 223 202 183 158 141 254 231 210 216 201 235 222 208 213 216 213 210 199 205 208 207 211 212 212 219 227 234 231 223 216 227 231 233 233 233 235 236 236 241 244 244 247 247 248 253 257 259
237 244 214 239 110 113 182 250 240 50 327 287 258 252 241 220 213 223 224 226 225 210 210 211 214 215 217 223 226 239 245 240 225 229 235 234 235 236 235 238 241 244 245 246 248 250 250 254 257
201 224 266 209 104 251 252 253 279 171 212 249 282 293 302 279 256 255 250 242 235 239 237 235 227 223 219 222 226 231 241 246 250 239 227 237 237 236 235 237 240 240 246 250 250 252 254 257 263
358 294 235 152 78 14 267 265 266 272 268 258 244 238 244 251 272 270 261 251 241 233 231 237 239 230 221 214 217 224 228 234 244 246 242 233 239 238 235 238 241 244 247 250 250 253 257 261 261
175 273 271 66 110 83 277 272 272 261 249 236 246 250 255 263 254 258 262 256 232 233 237 239 240 232 228 221 223 224 229 235 239 242 250 254 235 235 237 239 242 243 247 251 252 249 257 263 258
194 236 240 225 163 209 256 267 244 259 240 246 248 248 253 266 280 285 303 305 273 241 250 252 242 240 234 229 220 221 227 235 230 237 250 251 254 240 226 231 240 246 247 252 258 257 256 258 265
233 213 249 347 41 255 113 285 307 237 232 218 234 235 238 239 311 336 288 279 290 287 261 265 242 241 236 228 218 215 217 224 236 246 246 242 250 249 242 232 239 249 254 257 262 265 263 258 253
272 48 71 307 273 309 236 259 261 238 234 234 222 191 99 66 14 335 14 26 341 307 285 266 250 243 242 233 223 220 228 230 236 240 204 199 224 236 238 240 248 258 263 265 268 267 265 262 255
112 114 88 40 279 276 218 207 252 206 215 86 94 122 143 149 83 89 52 76 65 27 20 17 194 193 232 237 230 222 231 230 235 224 207 230 243 240 245 247 249 257 263 267 272 274 271 271 265
171 155 92 335 203 229 359 211 247 295 132 143 135 61 40 41 127 104 125 94 84 58 54 67 89 89 135 149 164 185 194 201 200 168 123 142 148 149 184 204 226 252 266 274 276 276 277 277 272
192 184 156 209 205 296 9 236 262 88 66 114 99 354 338 310 116 113 92 98 89 73 61 70 86 92 103 115 129 150 156 147 158 188 185 167 203 242 266 273 276 277 274 272 272 277 278 279 279
198 225 18 9 46 12 211 252 308 199 163 128 123 42 25 34 115 119 112 114 110 107 92 89 91 87 92 103 114 118 127 141 137 138 156 168 228 280 306 304 306 304 301 298 293 288 286 294 291
225 162 129 291 201 242 253 228 218 132 133 120 101 79 52 49 102 137 152 164 140 129 118 129 123 121 117 114 118 115 115 121 125 126 108 73 9 340 339 332 330 329 323 314 306 303 294 292 295
185 210 208 180 196 216 331 279 340 118 137 127 138 123 37 103 131 155 147 148 175 201 193 181 160 145 125 120 121 118 113 114 116 111 92 66 36 11 357 352 352 348 338 330 326 327 325 311 307
219 218 198 159 213 224 54 271 108 121 106 95 101 119 54 344 5 138 179 190 209 217 212 202 197 189 170 158 153 144 133 127 121 102 64 40 21 5 359 358 358 352 348 344 345 335 332 334 329